Погода в Правде

Россия / Сахалинская область     46°56′19″N   142°00′19″E
темп.,
°C
ветер,
м/с
пор.,
м/с
влажн.,
%
обл.,
%
осадки,
мм/ч
давл.,
гПа
погр.,
м
24 января, вс
вс2423:00−9зюз356218 0.0 1025613
02:00−8ююз587055 0.0 1025650
05:00−4юз7117968 0.1 1023964
08:00−3юз81179100 0.2 1021960
11:00−2юз10137892 0.3 1019986
14:000зюз11157893 0.0 10181126
17:000з8116999 0.1 10181033
20:00−5с588097 0.0 1021328
25 января, пн
пн2523:00−8всв337589 0.0 1022210
02:00−10всв338360 0.0 1024100
05:00−12всв337048 0.0 1026132
08:00−14всв23749 0.0 1030230
11:00−12св34780 0.0 1032348
14:00−11с577419 0.0 1033843
17:00−12ссв597323 0.0 1033862
20:00−15ссв488147 0.0 1035513
26 января, вт
вт2623:00−17св478529 0.0 1035417
02:00−17всв248621 0.0 1035225
05:00−17всв238622 0.0 1034211
08:00−17вюв33793 0.0 103487
11:00−16вюв34739 0.0 1033145
14:00−11вюв237897 0.0 1030304
17:00−12вюв468593 0.0 1028361
20:00−13вюв598491 0.0 1026342
27 января, ср
ср2723:00−13вюв6108798 0.0 1022340
02:00−11вюв61485100 0.1 1018368
05:00−9вюв91787100 0.6 1013406
08:00−7вюв132185100 1.0 1006493
11:00−3вюв132083100 3.3 1001762
14:00+1ююз12176788 1.0 9991548
17:00−7сз13188861 1.5 10011441
20:00−8сз101482100 0.9 10051467
28 января, чт
чт2823:00−8сз81194100 2.5 1008977
02:00−10сз101291100 2.3 10101276
05:00−11сз91190100 3.8 10111234
08:00−11зсз7989100 1.9 1012959
11:00−11сз81089100 3.9 10131043
14:00−11сз7890100 0.9 1013965
17:00−11сз5790100 2.1 1014875
20:00−11зсз5687100 1.0 1015733